Date String (YYYY-MM-DD hh:mm:ss) UTC,Instrument flags,Ambient pressure (hPa),Sample flow (lpm),Bypass flow (lpm),Sample temperature (°C),Ambient temperature (°C),ASC tube jacket temperature (°C),LED temperature (°C),Box temperature (°C),Sample RH (%),Span deviation,Mass concentration (μg/m³),Mass concentration (μg/m³),Mass concentration (μg/m³)
DateTimeUTC,F1_M11,P_M11,Q1_M11,Q2_M11,T1_M11,T2_M11,T3_M11,T4_M11,T5_M11,U1_M11,ZSPAN_M11,X0_M11,X2_M11,X1_M11
2022-03-27 12:00:00,,0824.4,5.01,0.00,27.0,25.8,00.0,36.0,28.7,12.6,0000.0,0014.42,0005.10,0004.14
2022-03-27 12:01:00,,0824.4,5.01,0.00,27.0,25.8,00.0,36.0,28.7,12.6,0000.0,0013.87,0005.05,0004.15
2022-03-27 12:02:00,,0824.4,4.99,0.00,27.0,25.8,00.0,36.0,28.7,12.6,0000.0,0013.71,0005.08,0004.17
2022-03-27 12:03:00,,0824.3,5.00,0.00,27.0,25.8,00.0,36.0,28.7,12.6,0000.0,0013.99,0005.04,0004.17
2022-03-27 12:04:00,,0824.3,5.00,0.00,26.9,25.8,00.0,36.0,28.7,12.7,0000.0,0014.67,0005.05,0004.19
2022-03-27 12:05:00,,0824.2,5.00,0.00,26.9,25.8,00.0,36.0,28.7,12.7,0000.0,0014.45,0005.06,0004.20
2022-03-27 12:06:00,,0824.3,5.00,0.00,26.9,25.7,00.0,35.9,28.7,12.7,0000.0,0013.36,0005.08,0004.21
2022-03-27 12:07:00,,0824.3,5.00,0.00,26.9,25.7,00.0,35.9,28.6,12.7,0000.0,0014.28,0005.11,0004.22
2022-03-27 12:08:00,,0824.3,5.00,0.00,26.9,25.7,00.0,35.9,28.6,12.7,0000.0,0015.18,0005.14,0004.23
2022-03-27 12:09:00,,0824.3,4.99,0.00,26.9,25.6,00.0,35.9,28.6,12.7,0000.0,0015.88,0005.14,0004.24
2022-03-27 12:10:00,,0824.3,5.00,0.00,26.9,25.6,00.0,35.9,28.6,12.7,0000.0,0016.91,0005.19,0004.25
2022-03-27 12:11:00,,0824.3,5.00,0.00,26.8,25.6,00.0,35.9,28.6,12.7,0000.0,0017.31,0005.18,0004.26
2022-03-27 12:12:00,,0824.3,5.02,0.00,26.8,25.5,00.0,35.9,28.5,12.8,0000.0,0017.31,0005.17,0004.27
2022-03-27 12:13:00,,0824.3,4.99,0.00,26.8,25.5,00.0,35.9,28.5,12.8,0000.0,0016.13,0005.13,0004.27
2022-03-27 12:14:00,,0824.3,4.99,0.00,26.8,25.5,00.0,35.8,28.5,12.8,0000.0,0015.50,0005.16,0004.28
2022-03-27 12:15:00,,0824.3,5.01,0.00,26.8,25.5,00.0,35.8,28.5,12.8,0000.0,0015.37,0005.19,0004.28
2022-03-27 12:16:00,,0824.3,5.00,0.00,26.7,25.5,00.0,35.8,28.5,12.8,0000.0,0015.57,0005.23,0004.30
2022-03-27 12:17:00,,0824.3,4.99,0.00,26.7,25.5,00.0,35.8,28.5,12.8,0000.0,0015.60,0005.25,0004.31
2022-03-27 12:18:00,,0824.3,5.00,0.00,26.7,25.6,00.0,35.8,28.5,12.8,0000.0,0015.44,0005.28,0004.30
2022-03-27 12:19:00,,0824.3,5.00,0.00,26.7,25.6,00.0,35.8,28.5,12.8,0000.0,0016.60,0005.27,0004.31
2022-03-27 12:20:00,,0824.3,5.00,0.00,26.7,25.6,00.0,35.8,28.5,12.8,0000.0,0016.48,0005.31,0004.31
2022-03-27 12:21:00,,0824.3,5.00,0.00,26.7,25.6,00.0,35.8,28.5,12.8,0000.0,0015.28,0005.31,0004.32
2022-03-27 12:22:00,,0824.4,5.01,0.00,26.7,25.7,00.0,35.8,28.5,12.8,0000.0,0015.17,0005.30,0004.32
2022-03-27 12:23:00,,0824.4,5.00,0.00,26.7,25.7,00.0,35.8,28.5,12.8,0000.0,0015.99,0005.34,0004.33
2022-03-27 12:24:00,,0824.3,5.00,0.00,26.7,25.7,00.0,35.8,28.5,12.8,0000.0,0016.37,0005.36,0004.33
2022-03-27 12:25:00,,0824.3,5.00,0.00,26.7,25.7,00.0,35.7,28.5,12.8,0000.0,0016.02,0005.41,0004.34
2022-03-27 12:26:00,,0824.3,5.00,0.00,26.8,25.7,00.0,35.7,28.5,12.8,0000.0,0015.16,0005.39,0004.35
2022-03-27 12:27:00,,0824.3,5.00,0.00,26.7,25.7,00.0,35.7,28.5,12.8,0000.0,0015.66,0005.37,0004.34
2022-03-27 12:28:00,,0824.3,5.01,0.00,26.7,25.7,00.0,35.7,28.5,12.8,0000.0,0015.88,0005.39,0004.35
2022-03-27 12:29:00,,0824.4,4.99,0.00,26.7,25.7,00.0,35.7,28.5,12.8,0000.0,0015.86,0005.35,0004.36
2022-03-27 12:30:00,,0824.4,5.00,0.00,26.7,25.7,00.0,35.7,28.5,12.8,0000.0,0014.93,0005.37,0004.35
2022-03-27 12:31:00,,0824.5,5.01,0.00,26.7,25.7,00.0,35.7,28.6,12.8,0000.0,0014.75,0005.39,0004.35
2022-03-27 12:32:00,,0824.4,5.00,0.00,26.8,25.7,00.0,35.7,28.5,12.8,0000.0,0015.05,0005.38,0004.35
2022-03-27 12:33:00,,0824.3,5.00,0.00,26.8,25.7,00.0,35.7,28.5,12.8,0000.0,0015.67,0005.41,0004.36
2022-03-27 12:34:00,,0824.3,4.99,0.00,26.7,25.7,00.0,35.7,28.6,12.8,0000.0,0014.75,0005.42,0004.36
2022-03-27 12:35:00,,0824.3,5.00,0.00,26.7,25.7,00.0,35.7,28.6,12.8,0000.0,0014.41,0005.40,0004.36
2022-03-27 12:36:00,,0824.3,5.00,0.00,26.7,25.7,00.0,35.7,28.5,12.8,0000.0,0014.05,0005.38,0004.36
2022-03-27 12:37:00,,0824.3,4.99,0.00,26.7,25.7,00.0,35.7,28.5,12.8,0000.0,0014.28,0005.35,0004.34
2022-03-27 12:38:00,,0824.3,5.00,0.00,26.7,25.7,00.0,35.7,28.6,12.8,0000.0,0014.56,0005.36,0004.34
2022-03-27 12:39:00,,0824.3,5.01,0.00,26.7,25.7,00.0,35.7,28.5,12.8,0000.0,0014.69,0005.30,0004.33
2022-03-27 12:40:00,,0824.4,5.01,0.00,26.7,25.7,00.0,35.7,28.5,12.8,0000.0,0014.20,0005.29,0004.34
2022-03-27 12:41:00,,0824.3,5.00,0.00,26.7,25.7,00.0,35.7,28.5,12.8,0000.0,0013.51,0005.31,0004.34
2022-03-27 12:42:00,,0824.3,4.99,0.00,26.7,25.7,00.0,35.7,28.5,12.8,0000.0,0013.14,0005.30,0004.34
2022-03-27 12:43:00,,0824.4,5.00,0.00,26.7,25.7,00.0,35.7,28.5,12.8,0000.0,0012.60,0005.28,0004.35
2022-03-27 12:44:00,,0824.4,5.00,0.00,26.7,25.7,00.0,35.7,28.5,12.8,0000.0,0012.14,0005.30,0004.34
2022-03-27 12:45:00,,0824.4,5.01,0.00,26.7,25.7,00.0,35.7,28.5,12.8,0000.0,0012.07,0005.32,0004.34
2022-03-27 12:46:00,,0824.4,5.01,0.00,26.7,25.6,00.0,35.7,28.5,12.8,0000.0,0012.77,0005.31,0004.34
2022-03-27 12:47:00,,0824.4,5.00,0.00,26.7,25.6,00.0,35.7,28.5,12.8,0000.0,0013.30,0005.29,0004.34
2022-03-27 12:48:00,,0824.4,5.01,0.00,26.7,25.7,00.0,35.7,28.5,12.8,0000.0,0013.37,0005.32,0004.35
2022-03-27 12:49:00,,0824.4,5.00,0.00,26.7,25.6,00.0,35.7,28.5,12.8,0000.0,0012.54,0005.33,0004.37
2022-03-27 12:50:00,,0824.4,5.00,0.00,26.7,25.6,00.0,35.7,28.5,12.9,0000.0,0011.91,0005.36,0004.37
2022-03-27 12:51:00,,0824.4,5.00,0.00,26.7,25.6,00.0,35.7,28.4,12.9,0000.0,0013.01,0005.36,0004.36
2022-03-27 12:52:00,,0824.4,5.00,0.00,26.7,25.6,00.0,35.7,28.4,12.9,0000.0,0013.74,0005.36,0004.36
2022-03-27 12:53:00,,0824.5,5.00,0.00,26.7,25.6,00.0,35.7,28.5,12.9,0000.0,0014.10,0005.40,0004.37
2022-03-27 12:54:00,,0824.4,5.00,0.00,26.7,25.6,00.0,35.7,28.4,12.9,0000.0,0014.64,0005.44,0004.38
2022-03-27 12:55:00,,0824.4,5.00,0.00,26.7,25.6,00.0,35.7,28.4,12.9,0000.0,0014.99,0005.41,0004.38
2022-03-27 12:56:00,,0824.4,5.00,0.00,26.6,25.6,00.0,35.7,28.4,12.9,0000.0,0015.03,0005.40,0004.37
2022-03-27 12:57:00,,0824.4,5.00,0.00,26.7,25.6,00.0,35.6,28.4,12.9,0000.0,0014.85,0005.40,0004.37
2022-03-27 12:58:00,,0824.4,5.00,0.00,26.6,25.6,00.0,35.7,28.4,13.0,0000.0,0014.44,0005.41,0004.38
2022-03-27 12:59:00,,0824.5,5.00,0.00,26.6,25.6,00.0,35.6,28.4,13.0,0000.0,0014.34,0005.40,0004.38
